Location: �bnet
(46.9957°N, 8.4908°E)
Time: 04:03:06
(UTC+00:00)

Cosmos 1975 - Pass Details

Date: 11 May 2021
Orbit: 541 x 560 km, 82.5° (Epoch: 23 June)

Event Time Altitude Azimuth Distance (km) Brightness Sun altitude
Rises 22:54:36 0° 345° (NNW) 2,715 7.7 -24.6°
Reaches altitude 10° 22:56:49 10° 340° (NNW) 1,817 6.5 -24.6°
Enters shadow 23:00:09 45° 293° (WNW) 745 3.6 -24.7°
